N1PRS-9 Weather Reports


Display with metric or nautical units.
time (UTC)temp
F
wind
direction
speed
MPH
gust
MPH
rain 1hr
in
rain 24hr
in
rain mn
in
humidity
%
barometer
mb
20260504184032 71 175 3.0 10.0 0.00 0.00 0.00 36 1008.9
20260504183532 71 0 3.0 10.0 0.00 0.00 0.00 36 1008.8
20260504183045 71 135 2.0 9.0 0.00 0.00 0.00 35 1009.0
20260504182532 71 259 3.0 10.0 0.00 0.00 0.00 35 1009.0
20260504182033 71 338 4.0 10.0 0.00 0.00 0.00 35 1009.1
20260504181550 71 233 1.0 10.0 0.00 0.00 0.00 36 1009.1
20260504181031 71 140 1.0 11.0 0.00 0.00 0.00 38 1009.3
20260504180533 70 202 1.0 11.0 0.00 0.00 0.00 36 1009.2
20260504180045 70 205 3.0 14.0 0.00 0.00 0.00 35 1009.3
20260504175531 70 229 3.0 14.0 0.00 0.00 0.00 35 1009.3
20260504175032 70 309 1.0 13.0 0.00 0.00 0.00 37 1009.8
20260504174539 69 196 5.0 13.0 0.00 0.00 0.00 36 1009.8
20260504174033 69 259 3.0 15.0 0.00 0.00 0.00 35 1009.9
20260504173531 69 171 2.0 18.0 0.00 0.00 0.00 35 1009.9
20260504173044 69 152 2.0 18.0 0.00 0.00 0.00 37 1009.9
20260504172531 69 187 2.0 18.0 0.00 0.00 0.00 37 1010.0
20260504172031 69 211 7.0 18.0 0.00 0.00 0.00 34 1010.0
20260504171546 69 196 4.0 14.0 0.00 0.00 0.00 36 1010.2
20260504171032 69 182 3.0 12.0 0.00 0.00 0.00 36 1010.0
20260504170532 68 213 1.0 9.0 0.00 0.00 0.00 37 1010.0
20260504151032 64 256 4.0 18.0 0.00 0.00 0.00 39 1011.1
20260504150534 64 229 7.0 18.0 0.00 0.00 0.00 38 1011.1
20260504141031 60 209 2.0 12.0 0.00 0.00 0.00 45 1012.0
20260504140534 60 207 2.0 10.0 0.00 0.00 0.00 47 1012.0
20260504130531 55 213 1.0 6.0 0.00 0.00 0.00 54 1012.7
20260504110531 47 0 0.0 2.0 0.00 0.00 0.00 63 1012.5
20260504100530 46 0 0.0 2.0 0.00 0.00 0.00 62 1012.2
20260504081559 46 0 0.0 4.0 0.00 0.00 0.00 62 1011.5
20260504081032 46 0 0.0 4.0 0.00 0.00 0.00 62 1011.5
20260504080531 45 0 0.0 5.0 0.00 0.00 0.00 63 1011.5
20260504050533 42 0 0.0 1.0 0.00 0.00 0.00 65 1012.0
20260504045537 42 0 0.0 1.0 0.00 0.00 0.00 64 1012.0
20260504045032 42 0 0.0 1.0 0.00 0.00 0.00 67 1012.0
20260504044545 42 0 0.0 1.0 0.00 0.00 0.00 65 1012.0
20260504044035 42 0 0.0 0.0 0.00 0.00 0.00 66 1012.1
20260504043533 42 0 0.0 1.0 0.00 0.00 0.00 67 1012.0
20260504043047 42 0 0.0 1.0 0.00 0.00 0.00 65 1012.0
20260504042532 42 0 0.0 1.0 0.00 0.00 0.00 66 1011.9
20260504042033 42 270 0.0 1.0 0.00 0.00 0.00 65 1012.0
20260504041542 42 0 0.0 1.0 0.00 0.00 0.00 68 1012.0
20260504041033 42 0 0.0 0.0 0.00 0.00 0.00 67 1012.0
20260504040531 42 0 0.0 0.0 0.00 0.00 0.00 67 1011.9
20260504040043 42 0 0.0 0.0 0.00 0.00 0.00 67 1011.9
20260504035534 42 0 0.0 0.0 0.00 0.00 0.00 64 1011.9
20260504035031 43 0 0.0 0.0 0.00 0.00 0.00 65 1011.8
20260504034545 43 0 0.0 1.0 0.00 0.00 0.00 65 1011.7
20260504034033 43 0 0.0 1.0 0.00 0.00 0.00 61 1011.7
20260504033534 43 0 0.0 1.0 0.00 0.00 0.00 60 1011.5
20260504033048 43 0 0.0 0.0 0.00 0.00 0.00 62 1011.7
20260504032532 43 0 0.0 0.0 0.00 0.00 0.00 61 1011.6
20260504032035 43 0 0.0 0.0 0.00 0.00 0.00 61 1011.6
20260504031546 43 0 0.0 0.0 0.00 0.00 0.00 60 1011.6
20260504031033 44 0 0.0 1.0 0.00 0.00 0.00 61 1011.7
20260504030534 44 0 0.0 1.0 0.00 0.00 0.00 60 1011.6
20260504030047 44 0 0.0 0.0 0.00 0.00 0.00 61 1011.7
20260504025533 44 0 0.0 2.0 0.00 0.00 0.00 62 1011.7
20260504025033 44 0 0.0 2.0 0.00 0.00 0.00 60 1011.7
20260504024542 44 0 0.0 2.0 0.00 0.00 0.00 61 1011.6
20260504024033 45 0 0.0 2.0 0.00 0.00 0.00 60 1011.5
20260504023533 45 0 0.0 1.0 0.00 0.00 0.00 58 1011.6
20260504023048 45 0 0.0 1.0 0.00 0.00 0.00 60 1011.5
20260504022533 45 0 0.0 1.0 0.00 0.00 0.00 58 1011.5
20260504022030 45 0 0.0 1.0 0.00 0.00 0.00 59 1011.5
20260504021551 46 0 0.0 1.0 0.00 0.00 0.00 56 1011.5
20260504021032 46 0 0.0 1.0 0.00 0.00 0.00 56 1011.6
20260504020532 46 0 0.0 2.0 0.00 0.00 0.00 54 1011.5
20260504020046 46 0 0.0 2.0 0.00 0.00 0.00 55 1011.5
20260504015533 46 0 0.0 2.0 0.00 0.00 0.00 55 1011.5
20260504015036 46 0 0.0 1.0 0.00 0.00 0.00 52 1011.4
20260504014555 46 0 0.0 0.0 0.00 0.00 0.00 53 1011.4
20260504014037 46 0 0.0 0.0 0.00 0.00 0.00 54 1011.4
20260504013533 46 0 0.0 0.0 0.00 0.00 0.00 54 1011.4
20260504013046 46 0 0.0 1.0 0.00 0.00 0.00 55 1011.3
20260504012533 46 0 0.0 1.0 0.00 0.00 0.00 55 1011.3
20260504012033 46 0 0.0 1.0 0.00 0.00 0.00 55 1011.1
20260504011541 47 0 0.0 1.0 0.00 0.00 0.00 54 1011.1
20260504011033 47 0 0.0 0.0 0.00 0.00 0.00 53 1011.2
20260504010532 47 0 0.0 0.0 0.00 0.00 0.00 53 1011.1
20260504010057 47 0 0.0 0.0 0.00 0.00 0.00 51 1011.1
20260504005533 47 0 0.0 0.0 0.00 0.00 0.00 50 1010.9
20260504005034 47 0 0.0 0.0 0.00 0.00 0.00 50 1010.9
20260504004545 48 0 0.0 0.0 0.00 0.00 0.00 49 1010.8
20260504004030 48 0 0.0 0.0 0.00 0.00 0.00 48 1010.5
20260504003532 48 0 0.0 0.0 0.00 0.00 0.00 47 1010.6
20260504003044 49 0 0.0 0.0 0.00 0.00 0.00 48 1010.5
20260504002533 49 0 0.0 1.0 0.00 0.00 0.00 47 1010.3
20260504002032 49 0 0.0 2.0 0.00 0.00 0.00 46 1010.3
20260504001556 50 0 0.0 2.0 0.00 0.00 0.00 45 1010.1
20260504001033 50 0 0.0 2.0 0.00 0.00 0.00 45 1010.0
20260504000534 50 0 0.0 1.0 0.00 0.00 0.00 44 1010.0
20260504000048 51 270 0.0 2.0 0.00 0.00 0.00 44 1009.9
20260503235532 52 0 0.0 2.0 0.00 0.00 0.00 43 1009.8
20260503235033 52 0 0.0 2.0 0.00 0.00 0.00 43 1010.0
20260503234550 53 0 0.0 4.0 0.00 0.00 0.00 42 1009.9
20260503234033 53 0 0.0 6.0 0.00 0.00 0.00 40 1009.8
20260503233530 53 282 2.0 10.0 0.00 0.00 0.00 39 1009.8
20260503233054 54 336 2.0 10.0 0.00 0.00 0.00 38 1009.9
20260503232533 54 290 3.0 8.0 0.00 0.00 0.00 36 1009.8
20260503232033 54 276 2.0 6.0 0.00 0.00 0.00 38 1009.8
20260503231545 54 309 2.0 9.0 0.00 0.00 0.00 38 1009.7
20260503231033 54 302 2.0 10.0 0.00 0.00 0.00 38 1009.7
20260503230535 54 277 4.0 18.0 0.00 0.00 0.00 37 1009.7
20260503230047 55 22 6.0 18.0 0.00 0.00 0.00 36 1009.7
20260503225532 55 320 4.0 10.0 0.00 0.00 0.00 37 1009.6
20260503225032 55 328 4.0 12.0 0.00 0.00 0.00 37 1009.6
20260503224545 55 0 3.0 12.0 0.00 0.00 0.00 39 1009.6
20260503224033 55 266 5.0 12.0 0.00 0.00 0.00 37 1009.5
20260503223533 55 292 5.0 10.0 0.00 0.00 0.00 38 1009.5
20260503223044 55 274 3.0 11.0 0.00 0.00 0.00 39 1009.5
20260503222534 55 92 5.0 11.0 0.00 0.00 0.00 37 1009.4
20260503222033 55 346 6.0 13.0 0.00 0.00 0.00 36 1009.4
20260503221549 55 292 5.0 13.0 0.00 0.00 0.00 37 1009.4
20260503221033 56 288 5.0 18.0 0.00 0.00 0.00 36 1009.5
20260503220533 56 39 4.0 18.0 0.00 0.00 0.00 36 1009.5
20260503220057 56 311 7.0 15.0 0.00 0.00 0.00 36 1009.7
20260503215531 56 255 5.0 14.0 0.00 0.00 0.00 38 1009.6
20260503215032 56 318 6.0 14.0 0.00 0.00 0.00 37 1009.5
20260503214544 56 252 5.0 12.0 0.00 0.00 0.00 37 1009.5
20260503214034 56 251 7.0 14.0 0.00 0.00 0.00 37 1009.6
20260503213535 56 293 6.0 15.0 0.00 0.00 0.00 38 1009.5
20260503213048 56 309 4.0 15.0 0.00 0.00 0.00 37 1009.5
20260503212532 55 317 7.0 21.0 0.00 0.00 0.00 38 1009.5
20260503212032 55 293 5.0 21.0 0.00 0.00 0.00 39 1009.4
20260503211543 55 284 8.0 16.0 0.00 0.00 0.00 40 1009.7
20260503211031 55 344 3.0 14.0 0.00 0.00 0.00 39 1009.4
20260503210533 55 335 6.0 21.0 0.00 0.00 0.00 39 1009.3
20260503210053 54 309 8.0 21.0 0.00 0.00 0.00 40 1009.4
20260503205534 54 239 8.0 21.0 0.00 0.00 0.00 38 1009.2
20260503205033 54 263 5.0 26.0 0.00 0.00 0.00 42 1009.2
20260503204557 54 330 9.0 26.0 0.00 0.00 0.00 38 1009.4
20260503204032 54 286 6.0 20.0 0.00 0.00 0.00 38 1009.3
20260503203533 54 275 6.0 20.0 0.00 0.00 0.00 41 1009.4
20260503203056 53 23 9.0 18.0 0.00 0.00 0.00 39 1009.2
20260503202534 53 280 7.0 16.0 0.00 0.00 0.00 39 1009.2
20260503202031 54 296 9.0 19.0 0.00 0.00 0.00 38 1009.5
20260503201545 54 347 7.0 20.0 0.00 0.00 0.00 38 1009.2
20260503201032 55 150 7.0 20.0 0.00 0.00 0.00 38 1009.2
20260503200533 54 360 6.0 17.0 0.00 0.00 0.00 40 1009.0
20260503200047 54 293 8.0 23.0 0.00 0.00 0.00 39 1009.2
20260503195532 52 281 9.0 23.0 0.00 0.00 0.00 41 1009.1
20260503195032 52 283 9.0 23.0 0.00 0.00 0.00 40 1009.1
20260503194601 52 250 7.0 21.0 0.00 0.00 0.00 40 1009.3
20260503194030 53 260 10.0 21.0 0.00 0.00 0.00 39 1009.2
20260503193532 53 215 5.0 16.0 0.00 0.00 0.00 39 1009.2
20260503193044 54 319 5.0 26.0 0.00 0.00 0.00 41 1009.1
20260503192531 54 270 9.0 26.0 0.00 0.00 0.00 40 1009.1
20260503192032 53 349 5.0 13.0 0.00 0.00 0.00 41 1009.2
20260503191543 53 227 6.0 17.0 0.00 0.00 0.00 40 1008.9
20260503191032 53 263 6.0 19.0 0.00 0.00 0.00 40 1009.0
20260503190530 53 312 9.0 19.0 0.00 0.00 0.00 38 1009.1
20260503190057 53 247 6.0 20.0 0.00 0.00 0.00 40 1008.9
20260503185532 53 290 9.0 21.0 0.00 0.05 0.00 40 1009.0
20260503185033 53 241 10.0 21.0 0.00 0.05 0.00 40 1009.1
20260503184546 53 202 12.0 21.0 0.00 0.05 0.00 40 1009.0